This is the latest recevied weather packets stored in our database for station/object KY4OP-13. If no packets are shown the sender has not sent any weather packets the latest 1 day(s).
| Time | Temp. | Humidity | Pressure | Rain* | Wind** | Luminosity | Snow |
|---|---|---|---|---|---|---|---|
| 1778050444 | 18.89° C | 64% | 1012.6 hPa | 0 mm | - | - | - |
| 1778049836 | 18.89° C | 63% | 1012.5 hPa | 0 mm | - | - | - |
| 1778049533 | 18.89° C | 63% | 1012.7 hPa | 0 mm | - | - | - |
| 1778049231 | 18.89° C | 63% | 1012.8 hPa | 0 mm | - | - | - |
| 1778048929 | 18.89° C | 63% | 1012.7 hPa | 0 mm | - | - | - |
| 1778048626 | 18.89° C | 62% | 1012.7 hPa | 0 mm | - | - | - |
| 1778048322 | 18.89° C | 62% | 1012.9 hPa | 0 mm | - | - | - |
| 1778048019 | 18.89° C | 61% | 1012.9 hPa | 0 mm | - | - | - |
| 1778047717 | 18.89° C | 62% | 1012.9 hPa | 0 mm | - | - | - |
| 1778047415 | 18.89° C | 61% | 1012.8 hPa | 0 mm | - | - | - |
| 1778046202 | 18.89° C | 61% | 1013.1 hPa | 0 mm | - | - | - |
| 1778045898 | 18.89° C | 61% | 1013 hPa | 0 mm | - | - | - |
| 1778045598 | 18.33° C | 61% | 1013.2 hPa | 0 mm | - | - | - |
| 1778045295 | 18.33° C | 61% | 1013.2 hPa | 0 mm | - | - | - |
| 1778044691 | 17.78° C | 64% | 1013.1 hPa | 0 mm | - | - | - |
| 1778044085 | 16.67° C | 67% | 1013.2 hPa | 0 mm | - | - | - |
| 1778043782 | 16.67° C | 66% | 1013 hPa | 0 mm | - | - | - |
| 1778043478 | 16.67° C | 67% | 1013.1 hPa | 0 mm | - | - | - |
| 1778043175 | 16.67° C | 66% | 1013.1 hPa | 0 mm | - | - | - |
| 1778042872 | 16.67° C | 65% | 1013.1 hPa | 0 mm | - | - | - |
| 1778042570 | 17.22° C | 64% | 1013.1 hPa | 0 mm | - | - | - |
| 1778042261 | 17.22° C | 63% | 1013.2 hPa | 0 mm | - | - | - |
| 1778041959 | 17.78° C | 62% | 1013.2 hPa | 0 mm | - | - | - |
| 1778041356 | 17.78° C | 61% | 1013.1 hPa | 0 mm | - | - | - |
| 1778040750 | 17.78° C | 61% | 1013.1 hPa | 0 mm | - | - | - |
* Rain latest hour (hover to see other rain measurements)
** Current wind speed in m/s (hover to see current wind gust speed)